Portada
METAR-TAF:

METAR-TAF

Aeroports :

Laconia Municipal Airport

Laconia, Nova Hampshire, Estats Units d'Amèrica

latitud: 43-34N, longitud: 071-25W, altitud: 166 m

Observació

L'informe es va fer fa 18 minuts, a les 22:56 UTC
Vent calma
Temperatura -8°C
Humitat 62%
Pressió 1028 hPa
Visibilitat: 16.1 km
Cel clar

METAR: KLCI 132256Z AUTO 00000KT 10SM CLR M08/M14 A3035 RMK AO2 SLP288 T10831144 FZRANO

Hora: 18:14 (23:14 UTC)


TAF: manca

Observacions i pronòstics meteorològics de més de 4000 aeroports (METAR i TAF).

Les estacions disponibles són els punts grocs i vermells al mapa.

Posi el ratolí al punt desitjat per veure el nom de l'estació.

Feu clic per veure les observacions i els pronòstics meteorològics.

Per canviar el mapa: feu clic els botons verds amb una creu de color negre per apropar; al botó verd amb un guió per allunyar la imatge; o en les fletxes verdes per a mapes adjacents.


METAR-TAF: